Torna al catalogo

ONEWEB-0439

AttivoComunicazioniPO
NORAD 51635·PAYLOAD·🇬🇧 United Kingdom

Lanciato Feb 10, 2022 da Guiana Space Centre

Loading…

Prossimi Passaggi (prossime 24 ore)

TLE

AggiornatoSource: CelesTrak SupGP

Epoca: Sep 14, 2026, 14:54 UTC

1 51635C 22012P   26257.62134676 -.00000516  00000+0 -14792-2 0  2579
2 51635  87.8908  18.4622 0001843 104.6798   7.2556 13.10371119    19

Traccia ONEWEB-0439 in tempo reale con AllMySat

Download on the App Store